Chanute, KS

1:01 AM CDT on March 23, 2017 (GMT -0500)
Chanute Martin Johnson

Weather History for KCNU - April, 2014

Change the Weather History Date:

Friday, April 18, 2014

  Actual Average Record
Temperature  
Mean Temperature 51 °F 58 °F  
Max Temperature 71 °F 69 °F 90 °F (2006)
Min Temperature 31 °F 47 °F 27 °F (1953)
Degree Days  
Heating Degree Days 14 8  
Month to date heating degree days 225 193  
Since 1 July heating degree days 4931 4324  
Cooling Degree Days 0 1  
Month to date cooling degree days 4 14  
Year to date cooling degree days 4 18  
Growing Degree Days 1 (Base 50)    
Moisture  
Dew Point 37 °F    
Average Humidity 67    
Maximum Humidity 100    
Minimum Humidity 33    
Precipitation  
Precipitation 0.00 in 0.15 in 2.91 in (1970)
Month to date precipitation 0.87 2.43  
Year to date precipitation 2.81 8.63  
Sea Level Pressure  
Sea Level Pressure 30.24 in    
Wind  
Wind Speed 4 mph (East)    
Max Wind Speed 14 mph    
Max Gust Speed 18 mph    
Visibility 4 miles    
Events      
T = Trace of Precipitation, MM = Missing Value Source: NWS Daily Summary

Daily Weather History Graph

Daily Weather History Graph

Search for Another Location

Airport or City:

Trip Planner

Search our weather history database for the weather conditions in past years. The results will help you decide how hot, cold, wet, or windy it might be!

Date:

Astronomy

Apr. 18, 2014 Rise Set
Actual Time 6:42 AM CDT 8:00 PM CDT
Civil Twilight 6:15 AM CDT 8:27 PM CDT
Nautical Twilight 5:43 AM CDT 9:00 PM CDT
Astronomical Twilight 5:09 AM CDT 9:34 PM CDT
Moon 11:44 PM CDT (4/18) 9:08 AM CDT (4/18)
Length of Visible Light 14h 12m
Length of Day
13h 17m
Waning Gibbous, 87% of the Moon is Illuminated
Apr 18
Waning Gibbous
Apr 22
Last Quarter
Apr 29
New
May 6
First Quarter
May 14
Full

Hourly Weather History & Observations

Time (CDT) Temp. Windchill Dew Point Humidity Pressure Visibility Wind Dir Wind Speed Gust Speed Precip Events Conditions
12:52 AM 37.9 °F 34.4 °F 35.1 °F 89% 30.30 in 4.0 mi NNE 4.6 mph - N/A   Clear
1:52 AM 35.1 °F - 34.0 °F 96% 30.30 in 3.0 mi Calm Calm - N/A   Clear
2:15 AM 34.0 °F - 32.0 °F 92% 30.27 in 2.5 mi Calm Calm - N/A   Clear
2:23 AM 36.0 °F - 33.1 °F 89% 30.28 in 3.0 mi Calm Calm - N/A   Clear
2:44 AM 33.1 °F - 32.0 °F 96% 30.28 in 2.0 mi Calm Calm - N/A   Clear
2:52 AM 34.0 °F - 32.0 °F 92% 30.29 in 2.5 mi Calm Calm - N/A   Clear
3:13 AM 32.0 °F 28.7 °F 30.9 °F 96% 30.27 in 1.5 mi NE 3.5 mph - N/A   Clear
3:34 AM 33.1 °F 30.0 °F 32.0 °F 96% 30.27 in 2.0 mi North 3.5 mph - N/A   Clear
3:42 AM 33.8 °F 30.8 °F 32.0 °F 93% 30.27 in 1.2 mi North 3.5 mph - N/A   Clear
3:52 AM 33.1 °F 30.0 °F 32.0 °F 96% 30.28 in 1.2 mi North 3.5 mph - N/A   Clear
3:59 AM 34.0 °F 31.0 °F 32.0 °F 92% 30.27 in 1.0 mi North 3.5 mph - N/A   Clear
4:07 AM 33.1 °F 30.0 °F 32.0 °F 96% 30.27 in 1.2 mi NNE 3.5 mph - N/A   Clear
4:15 AM 34.0 °F 31.0 °F 33.1 °F 96% 30.27 in 1.5 mi NNE 3.5 mph - N/A   Clear
4:23 AM 34.0 °F 31.0 °F 32.0 °F 92% 30.27 in 1.2 mi NNE 3.5 mph - N/A   Clear
4:29 AM 33.1 °F 30.0 °F 32.0 °F 96% 30.27 in 0.8 mi NE 3.5 mph - N/A   Clear
4:41 AM 36.0 °F - 33.1 °F 89% 30.27 in 1.2 mi Calm Calm - N/A   Clear
4:45 AM 33.1 °F 30.0 °F 32.0 °F 96% 30.27 in 2.0 mi ENE 3.5 mph - N/A   Clear
4:52 AM 32.0 °F - 32.0 °F 100% 30.29 in 2.0 mi Calm Calm - N/A   Clear
5:09 AM 34.0 °F 31.0 °F 32.0 °F 92% 30.27 in 1.5 mi ENE 3.5 mph - N/A   Clear
5:21 AM 32.0 °F - 32.0 °F 100% 30.27 in 2.0 mi Calm Calm - N/A   Clear
5:52 AM 35.1 °F - 34.0 °F 96% 30.29 in 3.0 mi Calm Calm - N/A   Clear
6:48 AM 33.8 °F 30.8 °F 32.0 °F 93% 30.29 in 2.0 mi ENE 3.5 mph - N/A   Clear
6:52 AM 34.0 °F 31.0 °F 32.0 °F 92% 30.30 in 2.0 mi East 3.5 mph - N/A   Clear
7:29 AM 37.0 °F 34.5 °F 35.1 °F 93% 30.30 in 3.0 mi East 3.5 mph - N/A   Clear
7:52 AM 41.0 °F 38.0 °F 37.9 °F 89% 30.32 in 4.0 mi East 4.6 mph - N/A   Clear
8:52 AM 46.9 °F - 39.0 °F 74% 30.32 in 7.0 mi ENE 4.6 mph - N/A   Clear
9:52 AM 53.1 °F - 39.9 °F 61% 30.32 in 9.0 mi Variable 3.5 mph - N/A   Clear
10:52 AM 57.9 °F - 43.0 °F 58% 30.31 in 10.0 mi ESE 3.5 mph - N/A   Clear
11:52 AM 62.1 °F - 42.1 °F 48% 30.29 in 10.0 mi Variable 5.8 mph - N/A   Clear
12:52 PM 64.9 °F - 42.1 °F 43% 30.27 in 10.0 mi Variable 4.6 mph - N/A   Clear
1:52 PM 66.9 °F - 41.0 °F 39% 30.25 in 10.0 mi ESE 9.2 mph - N/A   Clear
2:52 PM 68.0 °F - 41.0 °F 37% 30.23 in 10.0 mi ESE 8.1 mph - N/A   Clear
3:52 PM 69.8 °F - 41.0 °F 35% 30.20 in 10.0 mi Variable 3.5 mph - N/A   Clear
4:52 PM 70.0 °F - 39.9 °F 33% 30.17 in 10.0 mi Calm Calm - N/A   Clear
5:52 PM 70.0 °F - 39.9 °F 33% 30.15 in 10.0 mi SSE 10.4 mph 17.3 mph N/A   Clear
6:52 PM 68.0 °F - 41.0 °F 37% 30.14 in 10.0 mi SSE 8.1 mph - N/A   Clear
7:52 PM 62.1 °F - 42.1 °F 48% 30.14 in 7.0 mi SSE 5.8 mph - N/A   Clear
8:17 PM 60.1 °F - 41.0 °F 49% 30.14 in 3.0 mi SSE 5.8 mph - N/A   Haze
8:52 PM 57.9 °F - 41.0 °F 53% 30.14 in 8.0 mi SE 4.6 mph - N/A   Partly Cloudy
9:52 PM 55.4 °F - 41.0 °F 58% 30.16 in 10.0 mi ESE 5.8 mph - N/A   Clear
10:07 PM 54.0 °F - 41.0 °F 62% 30.17 in 4.0 mi SSE 5.8 mph - N/A   Haze
10:26 PM 54.0 °F - 41.0 °F 62% 30.17 in 1.8 mi SE 5.8 mph - N/A   Haze
10:34 PM 57.0 °F - 41.0 °F 55% 30.17 in 3.0 mi SE 5.8 mph - N/A   Haze
10:52 PM 51.1 °F - 41.0 °F 68% 30.17 in 3.0 mi SSE 4.6 mph - N/A   Haze
11:02 PM 57.0 °F - 41.0 °F 55% 30.17 in 2.5 mi SE 5.8 mph - N/A   Haze
11:09 PM 55.0 °F - 41.0 °F 59% 30.17 in 9.0 mi SE 4.6 mph - N/A   Clear
11:52 PM 48.0 °F - 41.0 °F 77% 30.17 in 5.0 mi SE 3.5 mph - N/A   Haze